TimeCDT,TemperatureF,Dew PointF,Humidity,Sea Level PressureIn,VisibilityMPH,Wind Direction,Wind SpeedMPH,Gust SpeedMPH,PrecipitationIn,Events,Conditions,WindDirDegrees,DateUTC
12:58 AM,68.2,65.5,91,30.10,2.0,SE,16.1,-,N/A,,Scattered Clouds,140,2013-10-14 05:58:00
1:03 AM,68.0,66.2,94,30.11,2.0,SE,15.0,-,N/A,,Mostly Cloudy,130,2013-10-14 06:03:00
1:08 AM,68.0,66.2,94,30.10,2.0,SE,13.8,-,N/A,,Mostly Cloudy,130,2013-10-14 06:08:00
1:33 AM,68.0,66.2,94,30.10,3.0,SSE,15.0,-,N/A,,Overcast,150,2013-10-14 06:33:00
1:38 AM,68.0,66.2,94,30.09,3.0,SE,15.0,-,N/A,,Overcast,140,2013-10-14 06:38:00
1:58 AM,68.4,66.0,92,30.09,3.0,SE,12.7,-,N/A,,Overcast,140,2013-10-14 06:58:00
2:23 AM,68.0,66.2,94,30.11,2.5,SE,9.2,-,N/A,,Overcast,140,2013-10-14 07:23:00
2:38 AM,68.0,66.2,94,30.10,3.0,SE,13.8,-,N/A,,Overcast,140,2013-10-14 07:38:00
2:58 AM,68.4,65.5,90,30.08,3.0,SE,10.4,-,N/A,,Overcast,140,2013-10-14 07:58:00
3:23 AM,68.0,66.2,94,30.08,3.0,SE,13.8,-,N/A,,Overcast,130,2013-10-14 08:23:00
3:53 AM,68.0,64.4,88,30.09,2.5,SSE,9.2,-,N/A,,Overcast,150,2013-10-14 08:53:00
3:58 AM,68.4,64.9,89,30.06,3.0,SE,11.5,-,N/A,,Overcast,130,2013-10-14 08:58:00
4:58 AM,67.8,64.6,89,30.06,3.0,SSE,8.1,-,N/A,,Overcast,150,2013-10-14 09:58:00
5:03 AM,68.0,64.4,88,30.08,3.0,SSE,10.4,-,N/A,,Overcast,150,2013-10-14 10:03:00
5:51 AM,68.0,64.4,88,30.07,3.0,SE,6.9,-,N/A,Rain,Light Rain,130,2013-10-14 10:51:00
5:58 AM,67.1,64.8,92,30.06,3.0,ESE,6.9,-,0.00,Rain,Light Rain,120,2013-10-14 10:58:00
6:01 AM,66.2,64.4,94,30.06,3.0,ESE,8.1,-,N/A,,Overcast,120,2013-10-14 11:01:00
6:38 AM,66.2,64.4,94,30.05,3.0,SE,8.1,-,N/A,,Light Drizzle,130,2013-10-14 11:38:00
6:44 AM,66.2,64.4,94,30.05,3.0,SE,9.2,-,N/A,Rain,Light Rain,130,2013-10-14 11:44:00
6:49 AM,66.2,64.4,94,30.05,2.5,SE,6.9,-,N/A,Rain,Light Rain,130,2013-10-14 11:49:00
6:50 AM,66.2,64.4,94,30.05,2.5,SE,8.1,-,N/A,Rain,Light Rain,130,2013-10-14 11:50:00
6:55 AM,66.2,64.4,94,30.05,2.0,SE,9.2,-,N/A,Rain,Light Rain,140,2013-10-14 11:55:00
6:58 AM,66.2,64.4,94,30.04,2.0,SE,10.4,-,0.05,Rain,Light Rain,140,2013-10-14 11:58:00
7:08 AM,66.2,64.4,94,30.05,4.0,SSE,5.8,-,N/A,,Light Drizzle,150,2013-10-14 12:08:00
7:12 AM,66.2,66.2,100,30.05,4.0,SSE,4.6,-,N/A,,Overcast,150,2013-10-14 12:12:00
7:18 AM,66.2,66.2,100,30.05,4.0,SSE,5.8,-,N/A,,Light Drizzle,150,2013-10-14 12:18:00
7:48 AM,66.2,66.2,100,30.04,2.0,SSE,10.4,-,N/A,Rain,Light Rain,150,2013-10-14 12:48:00
7:53 AM,66.2,66.2,100,30.04,1.5,SE,10.4,-,N/A,Rain,Light Rain,140,2013-10-14 12:53:00
7:58 AM,66.4,65.7,98,30.03,1.2,SE,10.4,-,0.05,Rain,Heavy Rain,140,2013-10-14 12:58:00
8:03 AM,66.2,66.2,100,30.04,1.0,SE,8.1,-,N/A,Rain,Light Rain,140,2013-10-14 13:03:00
8:08 AM,66.2,66.2,100,30.04,1.2,SSE,9.2,-,N/A,Rain,Light Rain,160,2013-10-14 13:08:00
8:13 AM,66.2,66.2,100,30.04,1.0,SE,8.1,-,N/A,Rain,Heavy Rain,140,2013-10-14 13:13:00
8:23 AM,66.2,66.2,100,30.04,1.5,South,6.9,-,N/A,Rain,Light Rain,180,2013-10-14 13:23:00
8:28 AM,66.2,66.2,100,30.04,2.0,SSE,8.1,-,N/A,Rain,Light Rain,160,2013-10-14 13:28:00
8:43 AM,66.2,66.2,100,30.04,3.0,SE,5.8,-,N/A,,Light Drizzle,140,2013-10-14 13:43:00
8:50 AM,66.2,66.2,100,30.04,5.0,SSE,5.8,-,N/A,,Overcast,150,2013-10-14 13:50:00
8:55 AM,66.2,66.2,100,30.04,5.0,SSE,6.9,-,N/A,,Overcast,150,2013-10-14 13:55:00
8:56 AM,66.2,66.2,100,30.04,5.0,SSE,8.1,-,N/A,Rain,Light Rain,150,2013-10-14 13:56:00
8:58 AM,66.2,66.2,100,30.03,4.0,SSE,8.1,-,0.15,Rain,Light Rain,160,2013-10-14 13:58:00
9:03 AM,66.2,66.2,100,30.04,2.0,SSE,8.1,-,N/A,Rain,Light Rain,150,2013-10-14 14:03:00
9:08 AM,66.2,66.2,100,30.04,1.5,SE,10.4,-,N/A,Rain,Light Rain,140,2013-10-14 14:08:00
9:18 AM,66.2,66.2,100,30.04,2.0,SSE,11.5,-,N/A,Rain,Light Rain,160,2013-10-14 14:18:00
9:23 AM,66.2,66.2,100,30.04,3.0,SSE,13.8,-,N/A,Rain,Light Rain,150,2013-10-14 14:23:00
9:28 AM,66.2,66.2,100,30.03,3.0,SSE,13.8,-,N/A,Rain,Light Rain,150,2013-10-14 14:28:00
9:33 AM,66.2,66.2,100,30.03,2.5,SSE,12.7,-,N/A,,Light Drizzle,160,2013-10-14 14:33:00
9:42 AM,66.2,66.2,100,30.03,3.0,SSE,12.7,-,N/A,,Overcast,160,2013-10-14 14:42:00
9:58 AM,66.7,66.7,100,30.01,5.0,SE,10.4,-,0.08,,Overcast,140,2013-10-14 14:58:00
10:30 AM,66.2,66.2,100,30.01,6.0,SSE,12.7,-,N/A,Rain,Light Rain,150,2013-10-14 15:30:00
10:40 AM,66.2,66.2,100,30.01,6.0,SSE,10.4,-,N/A,,Overcast,150,2013-10-14 15:40:00
10:48 AM,68.0,68.0,100,30.01,5.0,SSE,11.5,-,N/A,Rain,Light Rain,150,2013-10-14 15:48:00
10:53 AM,68.0,68.0,100,30.01,1.8,SSE,9.2,-,N/A,Rain,Heavy Rain,150,2013-10-14 15:53:00
10:58 AM,68.0,68.0,100,30.00,1.2,SSE,8.1,-,0.06,Rain,Light Rain,150,2013-10-14 15:58:00
11:03 AM,68.0,68.0,100,30.01,2.0,SSE,8.1,-,N/A,Rain,Light Rain,150,2013-10-14 16:03:00
11:13 AM,68.0,68.0,100,30.00,1.2,SE,9.2,-,N/A,Rain,Rain,140,2013-10-14 16:13:00
11:18 AM,68.0,68.0,100,30.00,1.5,SSE,11.5,-,N/A,Rain,Light Rain,150,2013-10-14 16:18:00
11:23 AM,68.0,68.0,100,30.00,2.0,SSE,10.4,-,N/A,,Light Drizzle,150,2013-10-14 16:23:00
11:38 AM,68.0,68.0,100,29.99,3.0,SSE,13.8,-,N/A,,Light Drizzle,160,2013-10-14 16:38:00
11:41 AM,68.0,68.0,100,29.99,4.0,SSE,12.7,-,N/A,,Overcast,150,2013-10-14 16:41:00
11:43 AM,68.0,68.0,100,29.99,4.0,SSE,12.7,-,N/A,Rain,Light Rain,160,2013-10-14 16:43:00
11:58 AM,68.0,68.0,100,29.98,3.0,SSE,11.5,-,0.11,Rain,Light Rain,160,2013-10-14 16:58:00
12:08 PM,68.0,68.0,100,29.99,7.0,South,10.4,-,N/A,Rain,Light Rain,170,2013-10-14 17:08:00
12:14 PM,68.0,68.0,100,29.98,10.0,South,11.5,-,N/A,,Overcast,170,2013-10-14 17:14:00
12:44 PM,69.8,69.8,100,29.97,10.0,South,12.7,-,N/A,,Overcast,190,2013-10-14 17:44:00
12:54 PM,69.8,69.8,100,29.97,10.0,South,10.4,-,N/A,,Overcast,190,2013-10-14 17:54:00
12:58 PM,70.3,70.3,100,29.96,10.0,South,12.7,-,0.01,,Overcast,190,2013-10-14 17:58:00
1:03 PM,69.8,69.8,100,29.97,10.0,South,12.7,-,N/A,,Overcast,190,2013-10-14 18:03:00
1:23 PM,71.6,71.6,100,29.95,10.0,South,10.4,-,N/A,,Overcast,190,2013-10-14 18:23:00
1:44 PM,71.6,69.8,94,29.93,10.0,South,15.0,20.7,N/A,,Overcast,180,2013-10-14 18:44:00
1:54 PM,71.6,69.8,94,29.92,10.0,South,12.7,-,N/A,,Overcast,180,2013-10-14 18:54:00
1:58 PM,72.0,70.0,93,29.91,10.0,South,12.7,-,N/A,,Overcast,180,2013-10-14 18:58:00
2:03 PM,71.6,69.8,94,29.91,10.0,South,12.7,-,N/A,,Overcast,180,2013-10-14 19:03:00
2:18 PM,73.4,69.8,88,29.91,10.0,South,15.0,-,N/A,,Overcast,180,2013-10-14 19:18:00
2:28 PM,73.4,69.8,88,29.90,10.0,South,12.7,19.6,N/A,,Overcast,190,2013-10-14 19:28:00
2:38 PM,73.4,69.8,88,29.90,10.0,South,16.1,23.0,N/A,,Overcast,190,2013-10-14 19:38:00
2:48 PM,73.4,68.0,83,29.90,10.0,South,10.4,-,N/A,,Overcast,190,2013-10-14 19:48:00
2:58 PM,73.6,69.1,86,29.87,10.0,South,17.3,-,N/A,,Overcast,190,2013-10-14 19:58:00
3:23 PM,75.2,69.8,83,29.88,10.0,South,15.0,-,N/A,,Overcast,180,2013-10-14 20:23:00
3:28 PM,75.2,68.0,78,29.88,10.0,South,16.1,-,N/A,,Overcast,180,2013-10-14 20:28:00
3:38 PM,73.4,68.0,83,29.89,10.0,SSW,15.0,-,N/A,,Overcast,200,2013-10-14 20:38:00
3:48 PM,73.4,69.8,88,29.88,10.0,South,13.8,-,N/A,,Overcast,180,2013-10-14 20:48:00
3:53 PM,75.2,69.8,83,29.88,10.0,South,12.7,-,N/A,,Overcast,180,2013-10-14 20:53:00
3:58 PM,74.5,69.4,84,29.85,10.0,South,13.8,-,N/A,,Overcast,180,2013-10-14 20:58:00
4:28 PM,75.2,69.8,83,29.88,8.0,South,10.4,-,N/A,,Overcast,180,2013-10-14 21:28:00
4:43 PM,73.4,69.8,88,29.87,7.0,South,12.7,-,N/A,,Overcast,170,2013-10-14 21:43:00
4:58 PM,73.4,69.4,87,29.85,6.0,SSE,13.8,-,N/A,,Overcast,160,2013-10-14 21:58:00
5:28 PM,73.4,69.8,88,29.86,5.0,South,13.8,-,N/A,,Haze,170,2013-10-14 22:28:00
5:58 PM,73.4,69.6,88,29.83,5.0,SSE,15.0,-,N/A,,Scattered Clouds,160,2013-10-14 22:58:00
6:18 PM,73.4,69.8,88,29.86,5.0,SSE,12.7,-,N/A,,Mostly Cloudy,160,2013-10-14 23:18:00
6:28 PM,73.4,69.8,88,29.86,4.0,South,12.7,-,N/A,,Mostly Cloudy,170,2013-10-14 23:28:00
6:38 PM,73.4,69.8,88,29.86,4.0,SSE,9.2,-,N/A,,Mostly Cloudy,150,2013-10-14 23:38:00
6:58 PM,72.3,70.0,92,29.84,5.0,SSE,9.2,-,N/A,,Overcast,150,2013-10-14 23:58:00
7:38 PM,71.6,69.8,94,29.87,5.0,SSE,9.2,-,N/A,,Overcast,160,2013-10-15 00:38:00
7:58 PM,72.0,70.5,95,29.86,6.0,SSE,9.2,-,N/A,,Overcast,150,2013-10-15 00:58:00
8:00 PM,71.6,69.8,94,29.87,6.0,SSE,9.2,-,N/A,,Overcast,150,2013-10-15 01:00:00
8:20 PM,71.6,69.8,94,29.87,6.0,SSE,11.5,-,N/A,,Overcast,150,2013-10-15 01:20:00
8:25 PM,71.6,69.8,94,29.87,6.0,SSE,12.7,-,N/A,,Mostly Cloudy,150,2013-10-15 01:25:00
8:58 PM,71.8,70.5,96,29.86,10.0,SSE,10.4,-,N/A,,Mostly Cloudy,160,2013-10-15 01:58:00
9:08 PM,71.6,71.6,100,29.89,10.0,SSE,9.2,-,N/A,,Mostly Cloudy,160,2013-10-15 02:08:00
9:38 PM,71.6,69.8,94,29.90,10.0,South,10.4,-,N/A,,Overcast,170,2013-10-15 02:38:00
9:58 PM,71.2,70.7,98,29.89,10.0,South,9.2,-,N/A,,Mostly Cloudy,170,2013-10-15 02:58:00
10:03 PM,71.6,71.6,100,29.90,10.0,South,11.5,-,N/A,,Mostly Cloudy,170,2013-10-15 03:03:00
10:58 PM,70.9,70.7,99,29.87,10.0,SSE,10.4,-,N/A,,Mostly Cloudy,160,2013-10-15 03:58:00
11:03 PM,71.6,69.8,94,29.89,10.0,South,12.7,-,N/A,,Mostly Cloudy,170,2013-10-15 04:03:00
11:38 PM,71.6,69.8,94,29.89,10.0,South,11.5,-,N/A,,Overcast,170,2013-10-15 04:38:00
11:53 PM,71.6,69.8,94,29.90,10.0,South,11.5,-,N/A,,Overcast,170,2013-10-15 04:53:00
11:58 PM,70.7,70.5,99,29.88,10.0,South,10.4,-,N/A,,Overcast,170,2013-10-15 04:58:00